contact:dominique.lefevre@mio.osupytheas.fr, maurice.libes@osupytheas.fr, didier.mallarino@osupytheas.fr
Project:EMSO http://www.emso-fr.org/EMSO-France
Depth: 2436.0 m
Title:EMSO Ligure Ouest : Data MII capteur AQUADOPP
Date,Latitude,Longitude,X_East,Y_North,Z_Up,Amplitude_X,Amplitude_Y,Amplitude_Z,Batterie,SoundSpeed,Heading,Pitch,Roll,Pressure,TIS,Speed,Direction
, degrees North, degrees East, m.s-1, m.s-1,m.s-1, 1, 1, 1, Volt, m.s-1, degree, degree, degree, dbar, degree_C, m.s-1, degree
2020-04-09T00:04:03,42.805,6.029,-0.002,0.046,-0.029,104.0,105.0,100.0,13.4,1505.3,328.4,-0.7,1.8,2470.233,13.31,0.046,357.5
2020-04-09T00:07:03,42.805,6.029,-0.008,0.037,-0.021,102.0,107.0,100.0,13.3,1505.3,325.1,-0.7,1.8,2470.245,13.32,0.037,347.8
2020-04-09T00:10:03,42.805,6.029,-0.026,0.027,-0.045,103.0,107.0,100.0,13.4,1505.3,325.5,-0.7,1.8,2470.213,13.32,0.037,316.1
2020-04-09T00:13:03,42.805,6.029,-0.017,0.038,-0.017,102.0,106.0,101.0,13.4,1505.3,326.9,-0.7,1.8,2470.212,13.33,0.041,335.9
2020-04-09T00:16:03,42.805,6.029,-0.021,0.036,-0.041,102.0,106.0,101.0,13.3,1505.3,324.1,-0.7,1.8,2470.196,13.33,0.041,329.7
2020-04-09T00:19:03,42.805,6.029,-0.025,0.025,-0.024,102.0,106.0,100.0,13.3,1505.3,328.6,-0.7,1.8,2470.202,13.33,0.035,315.0
2020-04-09T00:22:03,42.805,6.029,-0.002,0.037,0.001,104.0,107.0,100.0,13.4,1505.3,324.9,-0.7,1.9,2470.202,13.33,0.037,356.9
2020-04-09T00:25:03,42.805,6.029,-0.009,0.019,-0.012,102.0,105.0,102.0,13.4,1505.3,323.3,-0.7,1.8,2470.183,13.33,0.021,334.7
2020-04-09T00:28:03,42.805,6.029,0.01,0.032,-0.038,103.0,105.0,101.0,13.4,1505.3,327.6,-0.7,1.8,2470.161,13.33,0.033,17.4
2020-04-09T00:31:03,42.805,6.029,-0.015,0.015,-0.053,103.0,106.0,101.0,13.4,1505.3,325.4,-0.7,1.9,2470.195,13.33,0.021,315.0
2020-04-09T00:34:03,42.805,6.029,-0.028,0.026,-0.03,102.0,106.0,100.0,13.3,1505.3,323.5,-0.7,1.8,2470.159,13.33,0.038,312.9
2020-04-09T00:37:03,42.805,6.029,-0.013,0.019,-0.026,104.0,107.0,102.0,13.4,1505.3,326.6,-0.7,1.8,2470.157,13.33,0.023,325.6
2020-04-09T00:40:03,42.805,6.029,-0.009,0.013,-0.024,104.0,107.0,100.0,13.4,1505.3,326.7,-0.7,1.8,2470.162,13.33,0.015,325.3
2020-04-09T00:43:03,42.805,6.029,-0.018,0.031,-0.05,102.0,108.0,101.0,13.3,1505.3,326.1,-0.7,1.8,2470.179,13.33,0.035,329.9
2020-04-09T00:46:03,42.805,6.029,-0.007,0.048,-0.001,104.0,107.0,100.0,13.3,1505.3,327.4,-0.7,1.9,2470.181,13.33,0.048,351.7
2020-04-09T00:49:03,42.805,6.029,0.002,0.027,-0.036,104.0,106.0,100.0,13.3,1505.3,323.8,-0.7,1.8,2470.117,13.33,0.027,4.2
2020-04-09T00:52:03,42.805,6.029,-0.014,0.031,-0.023,103.0,108.0,100.0,13.4,1505.3,325.0,-0.7,1.8,2470.193,13.33,0.034,335.7
2020-04-09T00:55:03,42.805,6.029,-0.016,0.04,-0.021,102.0,106.0,101.0,13.4,1505.3,328.5,-0.7,1.8,2470.134,13.33,0.043,338.2
2020-04-09T00:58:03,42.805,6.029,-0.016,0.042,-0.046,103.0,107.0,100.0,13.4,1505.3,325.2,-0.7,1.9,2470.157,13.33,0.044,339.1
2020-04-09T01:04:03,42.805,6.029,-0.002,0.028,-0.016,106.0,108.0,101.0,13.4,1505.3,327.5,-0.7,1.8,2470.227,13.31,0.028,355.9
2020-04-09T01:07:03,42.805,6.029,-0.043,0.023,-0.037,102.0,105.0,100.0,13.4,1505.3,326.9,-0.7,1.8,2470.157,13.32,0.048,298.1
2020-04-09T01:10:03,42.805,6.029,0.0,0.014,-0.036,101.0,107.0,100.0,13.3,1505.3,324.5,-0.7,1.8,2470.191,13.32,0.014,0.0
2020-04-09T01:13:03,42.805,6.029,0.003,0.036,-0.026,100.0,107.0,101.0,13.3,1505.3,326.0,-0.7,1.8,2470.179,13.33,0.036,4.8
2020-04-09T01:16:03,42.805,6.029,-0.017,0.023,-0.057,102.0,105.0,100.0,13.4,1505.3,326.8,-0.7,1.8,2470.15,13.33,0.028,323.5
2020-04-09T01:19:03,42.805,6.029,-0.017,0.035,-0.022,103.0,104.0,100.0,13.4,1505.3,326.5,-0.7,1.8,2470.142,13.33,0.038,334.1
2020-04-09T01:22:03,42.805,6.029,0.003,0.039,-0.041,102.0,106.0,100.0,13.4,1505.3,326.7,-0.7,1.8,2470.116,13.33,0.039,4.4
2020-04-09T01:25:03,42.805,6.029,-0.009,0.036,-0.039,102.0,106.0,100.0,13.4,1505.3,326.4,-0.7,1.8,2470.151,13.33,0.037,346.0
2020-04-09T01:28:03,42.805,6.029,-0.022,0.006,-0.076,102.0,106.0,101.0,13.4,1505.3,323.8,-0.7,1.8,2470.133,13.33,0.022,285.3
2020-04-09T01:31:03,42.805,6.029,0.014,0.031,-0.019,103.0,107.0,101.0,13.4,1505.3,326.3,-0.7,1.8,2470.174,13.33,0.034,24.3
2020-04-09T01:34:03,42.805,6.029,-0.032,0.009,-0.078,101.0,105.0,100.0,13.4,1505.3,327.5,-0.7,1.8,2470.137,13.33,0.033,285.7
2020-04-09T01:37:03,42.805,6.029,0.032,0.024,-0.01,102.0,107.0,101.0,13.3,1505.3,325.4,-0.7,1.8,2470.115,13.33,0.04,53.1
2020-04-09T01:40:03,42.805,6.029,-0.015,0.024,-0.039,103.0,105.0,99.0,13.3,1505.3,324.3,-0.7,1.9,2470.119,13.33,0.028,328.0
2020-04-09T01:43:03,42.805,6.029,-0.012,0.036,-0.01,103.0,107.0,100.0,13.4,1505.3,328.4,-0.7,1.8,2470.129,13.33,0.037,341.6
2020-04-09T01:46:03,42.805,6.029,0.005,0.028,-0.008,102.0,106.0,101.0,13.4,1505.3,325.2,-0.7,1.8,2470.127,13.33,0.028,10.1
2020-04-09T01:49:03,42.805,6.029,-0.019,0.034,-0.051,102.0,107.0,100.0,13.4,1505.3,326.5,-0.7,1.8,2470.132,13.33,0.038,330.8
2020-04-09T01:52:03,42.805,6.029,-0.018,0.023,-0.06,104.0,106.0,100.0,13.4,1505.3,323.4,-0.7,1.8,2470.127,13.33,0.029,322.0
2020-04-09T01:55:03,42.805,6.029,0.0,0.043,-0.003,104.0,106.0,100.0,13.4,1505.3,328.6,-0.8,1.8,2470.089,13.33,0.043,0.0
2020-04-09T01:58:03,42.805,6.029,-0.034,0.028,-0.008,104.0,107.0,100.0,13.4,1505.3,324.6,-0.7,1.8,2470.14,13.33,0.044,309.5
2020-04-09T02:04:03,42.805,6.029,0.002,0.032,-0.052,103.0,107.0,102.0,13.4,1505.3,327.6,-0.8,1.8,2470.156,13.31,0.032,3.6
2020-04-09T02:07:03,42.805,6.029,-0.013,0.05,-0.031,102.0,107.0,100.0,13.4,1505.3,326.2,-0.7,1.8,2470.17,13.32,0.051,345.4
2020-04-09T02:10:03,42.805,6.029,-0.031,0.035,-0.036,103.0,106.0,100.0,13.4,1505.3,327.2,-0.7,1.8,2470.156,13.32,0.046,318.5
2020-04-09T02:13:03,42.805,6.029,-0.015,0.025,-0.02,102.0,106.0,101.0,13.3,1505.3,325.7,-0.7,1.8,2470.129,13.33,0.029,329.0
2020-04-09T02:16:03,42.805,6.029,-0.03,0.021,-0.038,103.0,106.0,100.0,13.4,1505.3,327.2,-0.7,1.8,2470.134,13.33,0.036,305.0
2020-04-09T02:19:03,42.805,6.029,0.004,0.015,0.007,102.0,106.0,101.0,13.4,1505.3,325.8,-0.7,1.9,2470.131,13.33,0.015,14.9
2020-04-09T02:22:03,42.805,6.029,-0.022,0.026,-0.014,103.0,107.0,101.0,13.4,1505.3,328.6,-0.7,1.8,2470.142,13.33,0.034,319.8
2020-04-09T02:25:03,42.805,6.029,0.01,0.0,-0.031,102.0,106.0,101.0,13.4,1505.3,323.7,-0.7,1.8,2470.132,13.33,0.01,90.0
2020-04-09T02:28:03,42.805,6.029,-0.029,0.03,-0.057,103.0,106.0,99.0,13.3,1505.3,326.9,-0.7,1.9,2470.134,13.33,0.041,316.0
2020-04-09T02:31:03,42.805,6.029,-0.005,0.024,-0.019,104.0,106.0,101.0,13.4,1505.3,324.6,-0.7,1.8,2470.139,13.33,0.024,348.2
2020-04-09T02:34:03,42.805,6.029,0.004,0.01,-0.031,103.0,106.0,101.0,13.4,1505.3,328.1,-0.7,1.8,2470.121,13.33,0.01,21.8
2020-04-09T02:37:03,42.805,6.029,0.031,0.036,0.014,103.0,107.0,100.0,13.3,1505.3,324.3,-0.7,1.8,2470.149,13.33,0.047,40.7
2020-04-09T02:40:03,42.805,6.029,0.007,0.032,0.011,103.0,105.0,100.0,13.4,1505.3,325.9,-0.7,1.8,2470.119,13.33,0.032,12.3
2020-04-09T02:43:03,42.805,6.029,-0.027,0.002,-0.08,103.0,109.0,101.0,13.3,1505.3,324.7,-0.7,1.8,2470.109,13.33,0.027,274.2
2020-04-09T02:46:03,42.805,6.029,0.024,0.027,0.011,103.0,106.0,101.0,13.3,1505.3,325.3,-0.7,1.8,2470.131,13.33,0.036,41.6
2020-04-09T02:49:03,42.805,6.029,-0.016,0.03,-0.006,104.0,107.0,101.0,13.4,1505.3,325.3,-0.7,1.8,2470.126,13.33,0.034,331.9
2020-04-09T02:52:03,42.805,6.029,0.01,0.021,-0.01,103.0,106.0,100.0,13.3,1505.4,325.8,-0.7,1.8,2470.133,13.34,0.023,25.5
2020-04-09T02:55:03,42.805,6.029,-0.014,0.025,-0.028,104.0,107.0,101.0,13.4,1505.4,323.3,-0.7,1.8,2470.158,13.34,0.028,330.7
2020-04-09T02:58:03,42.805,6.029,-0.001,0.032,-0.045,103.0,106.0,101.0,13.4,1505.3,324.4,-0.7,1.8,2470.136,13.33,0.032,358.2
2020-04-09T03:04:03,42.805,6.029,0.006,0.032,-0.014,102.0,106.0,100.0,13.4,1505.3,324.9,-0.7,1.9,2470.17,13.31,0.032,10.6
2020-04-09T03:07:03,42.805,6.029,-0.012,0.034,-0.021,103.0,108.0,101.0,13.3,1505.3,323.4,-0.7,1.9,2470.091,13.32,0.036,340.6
2020-04-09T03:10:03,42.805,6.029,-0.019,0.013,-0.043,102.0,107.0,100.0,13.3,1505.3,324.3,-0.7,1.9,2470.193,13.32,0.023,304.4
2020-04-09T03:13:03,42.805,6.029,0.0,0.02,-0.023,103.0,107.0,100.0,13.4,1505.3,324.7,-0.7,1.8,2470.118,13.33,0.02,0.0
2020-04-09T03:16:03,42.805,6.029,-0.003,0.032,-0.03,103.0,107.0,100.0,13.4,1505.3,324.2,-0.7,1.8,2470.145,13.33,0.032,354.6
2020-04-09T03:19:03,42.805,6.029,-0.002,0.005,-0.01,103.0,105.0,104.0,13.3,1505.3,324.9,-0.7,1.8,2470.134,13.33,0.005,338.2
2020-04-09T03:22:03,42.805,6.029,-0.056,0.035,-0.058,102.0,107.0,101.0,13.4,1505.3,325.9,-0.7,1.9,2470.145,13.33,0.066,302.0
2020-04-09T03:25:03,42.805,6.029,-0.013,0.023,-0.021,102.0,107.0,100.0,13.3,1505.3,327.4,-0.7,1.8,2470.16,13.33,0.026,330.5
2020-04-09T03:28:03,42.805,6.029,0.037,0.033,-0.021,103.0,106.0,100.0,13.3,1505.3,327.9,-0.7,1.8,2470.158,13.33,0.049,48.3
2020-04-09T03:31:03,42.805,6.029,0.018,0.007,-0.019,102.0,106.0,100.0,13.4,1505.3,325.9,-0.7,1.9,2470.119,13.33,0.019,68.8
2020-04-09T03:34:03,42.805,6.029,0.006,0.02,-0.01,103.0,106.0,101.0,13.4,1505.3,326.3,-0.7,1.8,2470.145,13.33,0.02,16.7
2020-04-09T03:37:03,42.805,6.029,-0.001,0.019,-0.009,103.0,107.0,100.0,13.4,1505.3,327.9,-0.7,1.8,2470.162,13.33,0.019,357.0
2020-04-09T03:40:03,42.805,6.029,0.013,0.015,-0.032,103.0,106.0,100.0,13.3,1505.3,324.0,-0.7,1.8,2470.129,13.33,0.019,40.9
2020-04-09T03:43:03,42.805,6.029,-0.039,0.021,-0.07,102.0,107.0,101.0,13.4,1505.3,326.0,-0.7,1.8,2470.145,13.33,0.044,298.3
2020-04-09T03:46:03,42.805,6.029,-0.028,-0.002,-0.056,102.0,107.0,103.0,13.4,1505.3,326.0,-0.7,1.8,2470.171,13.33,0.028,265.9
2020-04-09T03:49:03,42.805,6.029,-0.024,0.02,-0.046,103.0,107.0,101.0,13.4,1505.3,326.5,-0.7,1.9,2470.185,13.33,0.031,309.8
2020-04-09T03:52:03,42.805,6.029,0.0,0.029,-0.033,103.0,107.0,101.0,13.4,1505.3,328.0,-0.7,1.8,2470.166,13.33,0.028,0.0
2020-04-09T03:55:03,42.805,6.029,0.004,0.024,0.009,104.0,106.0,101.0,13.4,1505.3,327.3,-0.7,1.8,2470.134,13.33,0.024,9.5
2020-04-09T03:58:03,42.805,6.029,-0.009,0.02,-0.001,103.0,107.0,101.0,13.4,1505.3,328.6,-0.7,1.9,2470.161,13.33,0.021,335.8
2020-04-09T04:04:03,42.805,6.029,-0.006,0.014,-0.078,103.0,106.0,101.0,13.3,1505.3,326.0,-0.7,1.9,2470.183,13.31,0.015,336.8
2020-04-09T04:07:03,42.805,6.029,-0.062,0.032,-0.056,103.0,108.0,101.0,13.4,1505.3,324.0,-0.7,1.8,2470.183,13.32,0.069,297.3
2020-04-09T04:10:03,42.805,6.029,-0.023,0.025,-0.038,104.0,107.0,101.0,13.3,1505.3,324.2,-0.7,1.8,2470.21,13.33,0.033,317.4
2020-04-09T04:13:03,42.805,6.029,-0.039,0.019,-0.052,104.0,107.0,100.0,13.4,1505.3,327.1,-0.7,1.9,2470.216,13.33,0.043,296.0
2020-04-09T04:16:03,42.805,6.029,-0.009,0.033,-0.033,102.0,106.0,101.0,13.3,1505.3,325.7,-0.7,1.8,2470.207,13.33,0.034,344.7
2020-04-09T04:19:03,42.805,6.029,-0.017,0.028,-0.028,103.0,105.0,101.0,13.4,1505.3,324.9,-0.7,1.8,2470.195,13.33,0.032,328.7
2020-04-09T04:22:03,42.805,6.029,-0.01,0.02,-0.021,103.0,106.0,101.0,13.4,1505.3,328.3,-0.7,1.8,2470.215,13.33,0.022,333.4
2020-04-09T04:25:03,42.805,6.029,-0.009,0.037,-0.02,103.0,104.0,102.0,13.4,1505.3,327.6,-0.7,1.8,2470.223,13.33,0.038,346.3
2020-04-09T04:28:03,42.805,6.029,-0.025,0.026,-0.066,101.0,105.0,101.0,13.4,1505.3,327.2,-0.7,1.8,2470.178,13.33,0.036,316.1
2020-04-09T04:31:03,42.805,6.029,0.0,0.016,-0.047,102.0,106.0,101.0,13.4,1505.3,328.3,-0.7,1.8,2470.21,13.33,0.016,0.0
2020-04-09T04:34:03,42.805,6.029,-0.006,0.039,0.0,103.0,105.0,100.0,13.3,1505.3,325.9,-0.7,1.8,2470.186,13.33,0.039,351.3
2020-04-09T04:37:03,42.805,6.029,-0.006,0.018,-0.035,104.0,106.0,100.0,13.3,1505.3,326.8,-0.7,1.8,2470.186,13.33,0.018,341.6
2020-04-09T04:40:03,42.805,6.029,0.022,0.017,-0.023,103.0,106.0,101.0,13.4,1505.3,323.4,-0.7,1.8,2470.229,13.33,0.027,52.3
2020-04-09T04:43:03,42.805,6.029,-0.007,0.024,-0.04,102.0,106.0,100.0,13.4,1505.3,327.0,-0.7,1.8,2470.243,13.33,0.025,343.7
2020-04-09T04:46:03,42.805,6.029,0.0,0.029,-0.019,103.0,106.0,100.0,13.4,1505.3,327.6,-0.7,1.8,2470.215,13.33,0.028,0.0
2020-04-09T04:49:03,42.805,6.029,0.016,0.021,0.0,104.0,106.0,101.0,13.4,1505.3,323.5,-0.7,1.8,2470.247,13.33,0.026,37.3
2020-04-09T04:52:03,42.805,6.029,0.028,0.025,0.014,102.0,106.0,101.0,13.3,1505.3,325.6,-0.7,1.8,2470.217,13.33,0.037,48.2
2020-04-09T04:55:03,42.805,6.029,0.0,0.024,-0.056,101.0,106.0,101.0,13.4,1505.3,326.1,-0.7,1.8,2470.26,13.33,0.024,0.0
2020-04-09T04:58:03,42.805,6.029,0.001,0.009,-0.015,103.0,107.0,101.0,13.4,1505.3,326.0,-0.7,1.8,2470.226,13.33,0.009,6.3
2020-04-09T05:04:03,42.805,6.029,-0.015,0.028,-0.019,102.0,107.0,101.0,13.4,1505.3,323.5,-0.7,1.8,2470.28,13.31,0.031,331.8
2020-04-09T05:07:03,42.805,6.029,-0.022,0.037,-0.07,104.0,106.0,101.0,13.4,1505.3,325.9,-0.7,1.8,2470.285,13.32,0.043,329.3
2020-04-09T05:10:03,42.805,6.029,-0.007,0.01,-0.034,103.0,107.0,101.0,13.3,1505.3,326.8,-0.7,1.8,2470.249,13.32,0.012,325.0
2020-04-09T05:13:03,42.805,6.029,-0.019,0.025,-0.029,102.0,106.0,101.0,13.4,1505.3,326.2,-0.7,1.8,2470.262,13.33,0.031,322.8
2020-04-09T05:16:03,42.805,6.029,-0.019,0.042,-0.02,104.0,104.0,101.0,13.3,1505.3,323.3,-0.7,1.9,2470.245,13.33,0.046,335.7
2020-04-09T05:19:03,42.805,6.029,-0.015,0.026,-0.029,102.0,107.0,101.0,13.4,1505.3,325.0,-0.7,1.8,2470.295,13.33,0.03,330.0
2020-04-09T05:22:03,42.805,6.029,0.002,0.028,-0.032,103.0,106.0,101.0,13.4,1505.3,326.4,-0.7,1.9,2470.291,13.33,0.028,4.1
2020-04-09T05:25:03,42.805,6.029,0.017,0.04,-0.01,102.0,106.0,101.0,13.4,1505.3,325.3,-0.7,1.8,2470.31,13.33,0.043,23.0
2020-04-09T05:28:03,42.805,6.029,-0.004,0.031,-0.02,102.0,106.0,100.0,13.4,1505.3,322.8,-0.7,1.8,2470.326,13.33,0.031,352.7
2020-04-09T05:31:03,42.805,6.029,-0.02,0.027,-0.037,103.0,107.0,102.0,13.4,1505.3,323.0,-0.7,1.8,2470.314,13.33,0.033,323.5
2020-04-09T05:34:03,42.805,6.029,-0.028,0.027,-0.028,103.0,107.0,101.0,13.4,1505.3,327.0,-0.7,1.8,2470.334,13.33,0.038,314.0
2020-04-09T05:37:03,42.805,6.029,-0.015,0.028,-0.037,103.0,107.0,100.0,13.3,1505.3,326.9,-0.7,1.9,2470.316,13.33,0.031,331.8
2020-04-09T05:40:03,42.805,6.029,-0.019,0.01,-0.051,102.0,106.0,100.0,13.4,1505.3,327.7,-0.7,1.9,2470.346,13.33,0.021,297.8
2020-04-09T05:43:03,42.805,6.029,-0.015,0.032,-0.036,103.0,104.0,101.0,13.3,1505.3,325.4,-0.7,1.8,2470.276,13.33,0.035,334.9
2020-04-09T05:46:03,42.805,6.029,-0.008,0.025,-0.05,103.0,105.0,100.0,13.3,1505.3,324.9,-0.7,1.8,2470.328,13.33,0.026,342.3
2020-04-09T05:49:03,42.805,6.029,-0.018,0.025,-0.019,102.0,106.0,100.0,13.3,1505.3,324.9,-0.7,1.8,2470.316,13.33,0.03,324.2
2020-04-09T05:52:03,42.805,6.029,-0.014,0.024,-0.029,103.0,106.0,100.0,13.3,1505.3,323.5,-0.7,1.8,2470.346,13.33,0.027,329.7
2020-04-09T05:55:03,42.805,6.029,-0.014,0.026,-0.043,104.0,106.0,99.0,13.4,1505.3,327.2,-0.7,1.9,2470.321,13.33,0.029,331.7
2020-04-09T05:58:03,42.805,6.029,0.001,0.036,-0.051,102.0,106.0,100.0,13.4,1505.3,326.0,-0.7,1.8,2470.322,13.33,0.036,1.6
2020-04-09T06:04:03,42.805,6.029,-0.038,0.027,-0.04,102.0,106.0,101.0,13.4,1505.3,324.1,-0.7,1.8,2470.379,13.31,0.046,305.4
2020-04-09T06:07:03,42.805,6.029,0.034,0.048,0.016,102.0,106.0,101.0,13.3,1505.3,326.1,-0.7,1.8,2470.375,13.32,0.058,35.3
2020-04-09T06:10:03,42.805,6.029,0.017,0.014,-0.028,103.0,106.0,101.0,13.4,1505.3,327.2,-0.7,1.8,2470.324,13.32,0.022,50.5
2020-04-09T06:13:03,42.805,6.029,-0.01,0.023,-0.006,103.0,107.0,102.0,13.4,1505.3,323.2,-0.8,1.8,2470.334,13.33,0.025,336.5
2020-04-09T06:16:03,42.805,6.029,-0.005,0.036,-0.031,102.0,108.0,98.0,13.3,1505.3,325.6,-0.7,1.8,2470.374,13.33,0.036,352.1
2020-04-09T06:19:03,42.805,6.029,0.0,0.016,-0.015,104.0,106.0,102.0,13.4,1505.3,327.0,-0.7,1.9,2470.318,13.33,0.016,0.0
2020-04-09T06:22:03,42.805,6.029,-0.008,0.028,-0.025,101.0,107.0,100.0,13.4,1505.3,325.8,-0.7,1.9,2470.387,13.33,0.029,344.1
2020-04-09T06:25:03,42.805,6.029,-0.013,0.034,-0.038,102.0,107.0,100.0,13.3,1505.3,326.6,-0.7,1.8,2470.377,13.33,0.036,339.1
2020-04-09T06:28:03,42.805,6.029,-0.001,0.02,-0.017,102.0,107.0,100.0,13.3,1505.3,325.5,-0.7,1.8,2470.362,13.33,0.02,357.1
2020-04-09T06:31:03,42.805,6.029,0.025,0.029,-0.017,103.0,105.0,100.0,13.4,1505.3,328.1,-0.7,1.8,2470.354,13.33,0.038,40.8
2020-04-09T06:34:03,42.805,6.029,0.008,0.035,-0.008,103.0,105.0,101.0,13.4,1505.3,325.9,-0.7,1.8,2470.369,13.33,0.035,12.9
2020-04-09T06:37:03,42.805,6.029,-0.032,0.025,-0.042,105.0,107.0,100.0,13.3,1505.3,325.6,-0.7,1.9,2470.383,13.33,0.04,308.0
2020-04-09T06:40:03,42.805,6.029,-0.02,0.036,-0.022,103.0,107.0,101.0,13.4,1505.3,323.4,-0.7,1.8,2470.352,13.33,0.041,330.9
2020-04-09T06:43:03,42.805,6.029,-0.009,0.053,-0.01,103.0,106.0,99.0,13.4,1505.3,324.8,-0.7,1.9,2470.372,13.33,0.053,350.4
2020-04-09T06:46:03,42.805,6.029,-0.012,0.032,-0.009,103.0,105.0,101.0,13.4,1505.3,325.0,-0.7,1.8,2470.378,13.33,0.034,339.4
2020-04-09T06:49:03,42.805,6.029,-0.004,0.014,-0.05,102.0,107.0,100.0,13.3,1505.3,325.9,-0.7,1.8,2470.329,13.33,0.014,344.1
2020-04-09T06:52:03,42.805,6.029,-0.041,0.037,-0.055,104.0,108.0,100.0,13.4,1505.3,325.9,-0.7,1.8,2470.42,13.33,0.055,312.1
2020-04-09T06:55:03,42.805,6.029,-0.002,0.034,-0.029,102.0,106.0,101.0,13.4,1505.3,328.0,-0.7,1.8,2470.362,13.33,0.034,356.6
2020-04-09T06:58:03,42.805,6.029,0.009,0.026,-0.016,103.0,108.0,100.0,13.4,1505.3,326.7,-0.7,1.9,2470.381,13.33,0.027,19.1
2020-04-09T07:04:03,42.805,6.029,-0.009,0.029,-0.045,102.0,106.0,101.0,13.4,1505.3,327.0,-0.7,1.8,2470.434,13.31,0.03,342.8
2020-04-09T07:07:03,42.805,6.029,-0.029,0.02,-0.059,103.0,111.0,102.0,13.4,1505.3,325.1,-0.7,1.8,2470.444,13.32,0.035,304.6
2020-04-09T07:10:03,42.805,6.029,-0.025,0.022,-0.038,104.0,106.0,102.0,13.3,1505.3,326.3,-0.7,1.9,2470.393,13.33,0.033,311.3
2020-04-09T07:13:03,42.805,6.029,-0.004,0.027,0.0,103.0,106.0,99.0,13.4,1505.3,326.5,-0.7,1.9,2470.402,13.33,0.027,351.6
2020-04-09T07:16:03,42.805,6.029,-0.031,0.017,-0.085,103.0,107.0,100.0,13.4,1505.3,326.2,-0.7,1.8,2470.412,13.33,0.035,298.7
2020-04-09T07:19:03,42.805,6.029,-0.017,0.012,-0.062,103.0,106.0,100.0,13.3,1505.3,326.8,-0.7,1.8,2470.411,13.33,0.02,305.2
2020-04-09T07:22:03,42.805,6.029,-0.018,0.021,0.001,103.0,107.0,100.0,13.4,1505.3,326.5,-0.7,1.8,2470.391,13.33,0.027,319.4
2020-04-09T07:25:03,42.805,6.029,-0.008,0.036,-0.025,103.0,104.0,101.0,13.4,1505.3,327.1,-0.7,1.8,2470.375,13.33,0.036,347.5
2020-04-09T07:28:03,42.805,6.029,-0.014,0.027,-0.023,102.0,106.0,101.0,13.4,1505.3,326.5,-0.7,1.8,2470.39,13.33,0.03,332.6
2020-04-09T07:31:03,42.805,6.029,-0.008,0.019,-0.053,103.0,108.0,101.0,13.3,1505.3,324.3,-0.7,1.8,2470.393,13.33,0.02,337.2
2020-04-09T07:34:03,42.805,6.029,-0.015,0.019,-0.028,102.0,106.0,102.0,13.4,1505.3,326.1,-0.8,1.9,2470.415,13.33,0.024,321.7
2020-04-09T07:40:03,42.805,6.029,0.017,0.019,-0.032,102.0,105.0,101.0,13.3,1505.3,325.9,-0.7,1.8,2470.428,13.31,0.025,41.8
2020-04-09T07:43:03,42.805,6.029,-0.009,0.027,-0.04,101.0,106.0,100.0,13.3,1505.3,323.4,-0.8,1.9,2470.418,13.32,0.028,341.6
2020-04-09T07:46:03,42.805,6.029,-0.01,0.014,-0.056,103.0,107.0,100.0,13.4,1505.3,324.3,-0.7,1.8,2470.429,13.32,0.017,324.5
2020-04-09T07:49:03,42.805,6.029,0.01,0.026,-0.031,102.0,106.0,100.0,13.4,1505.3,327.4,-0.7,1.8,2470.392,13.33,0.027,21.0
2020-04-09T07:52:03,42.805,6.029,-0.073,0.03,-0.075,102.0,107.0,101.0,13.3,1505.3,326.1,-0.7,1.8,2470.411,13.33,0.078,292.3
2020-04-09T07:55:03,42.805,6.029,-0.044,-0.002,-0.081,103.0,108.0,101.0,13.4,1505.3,325.0,-0.7,1.8,2470.412,13.33,0.044,267.4
2020-04-09T07:58:03,42.805,6.029,-0.06,0.033,-0.089,102.0,107.0,101.0,13.4,1505.3,326.6,-0.7,1.9,2470.389,13.33,0.068,298.8
2020-04-09T08:04:03,42.805,6.029,0.01,0.004,-0.025,103.0,107.0,101.0,13.4,1505.3,327.5,-0.8,1.8,2470.46,13.31,0.01,68.2
2020-04-09T08:07:03,42.805,6.029,-0.059,0.013,-0.067,103.0,108.0,100.0,13.4,1505.3,324.0,-0.7,1.8,2470.436,13.32,0.06,282.4
2020-04-09T08:10:03,42.805,6.029,-0.001,0.015,-0.019,102.0,107.0,100.0,13.4,1505.3,325.5,-0.7,1.8,2470.407,13.32,0.015,356.2
2020-04-09T08:13:03,42.805,6.029,-0.013,0.014,-0.012,103.0,107.0,101.0,13.4,1505.3,323.8,-0.7,1.8,2470.422,13.33,0.019,317.1
2020-04-09T08:16:03,42.805,6.029,-0.001,0.018,-0.03,103.0,107.0,100.0,13.4,1505.3,324.5,-0.7,1.8,2470.44,13.33,0.018,356.8
2020-04-09T08:19:03,42.805,6.029,-0.035,0.026,-0.077,103.0,108.0,100.0,13.4,1505.3,324.5,-0.7,1.8,2470.4,13.33,0.043,306.6
2020-04-09T08:22:03,42.805,6.029,-0.001,0.033,-0.011,103.0,105.0,100.0,13.4,1505.3,325.4,-0.7,1.8,2470.405,13.33,0.033,358.3
2020-04-09T08:25:03,42.805,6.029,-0.043,0.03,-0.058,103.0,107.0,102.0,13.4,1505.3,323.4,-0.7,1.8,2470.427,13.33,0.052,304.9
2020-04-09T08:28:03,42.805,6.029,-0.045,0.019,-0.042,104.0,108.0,99.0,13.4,1505.3,324.5,-0.7,1.8,2470.45,13.33,0.048,292.9
2020-04-09T08:31:03,42.805,6.029,0.0,0.014,-0.017,104.0,108.0,101.0,13.4,1505.3,324.3,-0.7,1.8,2470.388,13.33,0.014,0.0
2020-04-09T08:34:03,42.805,6.029,-0.042,-0.007,-0.069,104.0,109.0,101.0,13.4,1505.3,325.3,-0.7,1.9,2470.411,13.33,0.042,260.5
2020-04-09T08:37:03,42.805,6.029,-0.036,0.01,-0.06,104.0,107.0,102.0,13.4,1505.3,327.0,-0.7,1.8,2470.421,13.33,0.037,285.5
2020-04-09T08:40:03,42.805,6.029,-0.02,0.021,-0.069,104.0,106.0,101.0,13.4,1505.3,326.2,-0.8,1.8,2470.379,13.33,0.028,316.4
2020-04-09T08:43:03,42.805,6.029,-0.038,0.01,-0.043,104.0,106.0,100.0,13.4,1505.3,325.3,-0.7,1.9,2470.376,13.33,0.039,284.7
2020-04-09T08:46:03,42.805,6.029,0.012,0.002,-0.013,102.0,106.0,101.0,13.4,1505.3,326.1,-0.7,1.8,2470.389,13.33,0.012,80.5
2020-04-09T08:49:03,42.805,6.029,0.011,0.031,0.017,103.0,108.0,101.0,13.4,1505.3,326.7,-0.7,1.8,2470.387,13.33,0.032,19.5
2020-04-09T08:52:03,42.805,6.029,0.001,0.029,-0.01,104.0,108.0,101.0,13.4,1505.3,326.6,-0.7,1.8,2470.422,13.33,0.029,2.0
2020-04-09T08:55:03,42.805,6.029,0.017,0.0,-0.033,104.0,106.0,100.0,13.3,1505.3,325.4,-0.7,1.8,2470.37,13.33,0.017,90.0
2020-04-09T08:58:03,42.805,6.029,-0.018,0.016,-0.045,103.0,106.0,100.0,13.4,1505.3,326.7,-0.7,1.8,2470.384,13.33,0.024,311.6
2020-04-09T09:04:03,42.805,6.029,0.009,0.016,-0.016,103.0,107.0,100.0,13.3,1505.3,325.9,-0.7,1.8,2470.456,13.31,0.018,29.4
2020-04-09T09:07:03,42.805,6.029,-0.009,0.019,-0.023,103.0,107.0,101.0,13.3,1505.3,327.3,-0.7,1.8,2470.383,13.32,0.021,334.7
2020-04-09T09:10:03,42.805,6.029,-0.035,0.026,-0.021,102.0,106.0,101.0,13.3,1505.3,323.4,-0.7,1.9,2470.423,13.32,0.043,306.6
2020-04-09T09:13:03,42.805,6.029,-0.012,0.028,-0.035,103.0,106.0,100.0,13.4,1505.3,325.3,-0.7,1.8,2470.38,13.33,0.03,336.8
2020-04-09T09:16:03,42.805,6.029,-0.008,0.044,-0.054,104.0,106.0,100.0,13.4,1505.3,327.4,-0.7,1.8,2470.422,13.33,0.044,349.7
2020-04-09T09:19:03,42.805,6.029,-0.017,0.017,-0.032,103.0,107.0,99.0,13.4,1505.3,324.1,-0.7,1.8,2470.416,13.33,0.024,315.0
2020-04-09T09:22:03,42.805,6.029,-0.028,0.016,-0.061,102.0,105.0,100.0,13.4,1505.3,324.3,-0.7,1.8,2470.377,13.33,0.032,299.7
2020-04-09T09:25:03,42.805,6.029,-0.026,0.036,-0.028,102.0,106.0,100.0,13.3,1505.3,325.7,-0.7,1.8,2470.385,13.33,0.044,324.2
2020-04-09T09:28:03,42.805,6.029,-0.001,0.036,-0.008,104.0,106.0,100.0,13.4,1505.3,327.2,-0.7,1.8,2470.373,13.33,0.036,358.4
2020-04-09T09:31:03,42.805,6.029,-0.04,0.012,-0.072,103.0,107.0,100.0,13.3,1505.3,325.5,-0.7,1.8,2470.368,13.33,0.041,286.7
2020-04-09T09:34:03,42.805,6.029,-0.017,0.027,-0.076,102.0,106.0,101.0,13.4,1505.3,327.1,-0.7,1.8,2470.378,13.33,0.031,327.8
2020-04-09T09:37:03,42.805,6.029,-0.007,0.026,0.009,104.0,105.0,101.0,13.4,1505.3,325.6,-0.7,1.8,2470.385,13.33,0.026,344.9
2020-04-09T09:40:03,42.805,6.029,0.037,0.003,-0.015,103.0,106.0,100.0,13.4,1505.3,324.5,-0.7,1.8,2470.354,13.33,0.037,85.4
2020-04-09T09:43:03,42.805,6.029,0.008,0.022,-0.021,103.0,105.0,101.0,13.4,1505.3,326.9,-0.7,1.8,2470.344,13.33,0.023,20.0
2020-04-09T09:46:03,42.805,6.029,0.012,0.022,-0.019,103.0,106.0,101.0,13.4,1505.3,323.7,-0.7,1.8,2470.341,13.33,0.025,28.6
2020-04-09T09:49:03,42.805,6.029,0.0,0.015,-0.032,102.0,106.0,101.0,13.4,1505.3,326.9,-0.7,1.8,2470.339,13.33,0.015,0.0
2020-04-09T09:52:03,42.805,6.029,-0.016,0.019,-0.018,103.0,104.0,101.0,13.4,1505.3,325.0,-0.7,1.9,2470.344,13.33,0.024,319.9
2020-04-09T09:55:03,42.805,6.029,-0.043,0.017,-0.049,102.0,107.0,102.0,13.4,1505.3,325.1,-0.7,1.8,2470.391,13.33,0.046,291.6
2020-04-09T09:58:03,42.805,6.029,-0.009,0.014,-0.034,102.0,105.0,100.0,13.3,1505.3,323.5,-0.7,1.8,2470.385,13.33,0.016,327.3
2020-04-09T10:04:03,42.805,6.029,0.007,0.004,-0.026,101.0,104.0,100.0,13.3,1505.3,327.3,-0.7,1.8,2470.384,13.31,0.008,60.3